Weather History for Chillicothe, MO

Change the Weather History Date:

Saturday, November 10, 2012

  Actual Average (KIRK) Record (KIRK)
Temperature  
Mean Temperature 69 °F 43 °F  
Max Temperature 75 °F 53 °F 78 °F (1923)
Min Temperature 63 °F 33 °F 13 °F (1926)
Degree Days  
Heating Degree Days 0 22  
Month to date heating degree days 197  
Since 1 July heating degree days 686  
Cooling Degree Days 4 0  
Month to date cooling degree days 0  
Year to date cooling degree days 939  
Growing Degree Days 19 (Base 50)    
Moisture  
Dew Point 53 °F    
Average Humidity 58    
Maximum Humidity 73    
Minimum Humidity 42    
Precipitation  
Precipitation 0.00 in 0.10 in 0.85 in (1983)
Month to date precipitation 1.14  
Year to date precipitation 35.98  
Sea Level Pressure  
Sea Level Pressure 29.75 in    
Wind  
Wind Speed 13 mph (South)    
Max Wind Speed 22 mph    
Max Gust Speed 33 mph    
T = Trace of Precipitation, MM = Missing Value Source: NWS Daily Summary

Daily Weather History Graph

Daily Weather History Graph

Search for Another Location

Airport:

Trip Planner

Search our weather history database for the weather conditions in past years. The results will help you decide how hot, cold, wet, or windy it might be!

Date:

Astronomy

Nov. 10, 2012 Rise Set
Actual Time 6:53 AM CST 5:02 PM CST
Civil Twilight 6:25 AM CST 5:30 PM CST
Nautical Twilight 5:52 AM CST 6:03 PM CST
Astronomical Twilight 5:21 AM CST 6:34 PM CST
Moon 3:00 AM CST (11/10) 2:49 PM CST (11/10)
Length of Visible Light 11h 05m
Length of Day
10h 08m
Waning Crescent, 14% of the Moon is Illuminated
Nov 10
Waning Crescent
Nov 13
New
Nov 20
First Quarter
Nov 28
Full
Dec 6
Last Quarter

Hourly Weather History & Observations

Time (CST) Temp. Dew Point Humidity Pressure Visibility Wind Dir Wind Speed Gust Speed Precip Events Conditions
12:52 AM 64.9 °F 55.0 °F 70% 29.79 in - South 9.2 mph 18.4 mph N/A   Unknown
1:52 AM 64.9 °F 55.0 °F 70% 29.79 in - South 10.4 mph - N/A   Unknown
2:52 AM 64.9 °F 55.0 °F 70% 29.78 in - South 12.7 mph 20.7 mph N/A   Unknown
3:52 AM 64.0 °F 55.0 °F 73% 29.77 in - South 10.4 mph 21.9 mph N/A   Unknown
4:52 AM 64.0 °F 55.0 °F 73% 29.77 in - South 11.5 mph 20.7 mph N/A   Unknown
5:52 AM 64.0 °F 54.0 °F 70% 29.78 in - South 9.2 mph - N/A   Unknown
6:52 AM 64.0 °F 54.0 °F 70% 29.79 in - South 11.5 mph - N/A   Unknown
7:52 AM 63.0 °F 54.0 °F 72% 29.81 in - South 10.4 mph - N/A   Unknown
8:52 AM 66.0 °F 55.0 °F 68% 29.79 in - South 10.4 mph 20.7 mph N/A   Unknown
9:52 AM 70.0 °F 55.0 °F 59% 29.78 in - SSW 17.3 mph 25.3 mph N/A   Unknown
10:52 AM 72.0 °F 55.9 °F 57% 29.78 in - SSW 13.8 mph 26.5 mph N/A   Unknown
11:52 AM 73.9 °F 55.9 °F 53% 29.75 in - SSW 19.6 mph 28.8 mph N/A   Unknown
12:52 PM 73.9 °F 55.9 °F 53% 29.74 in - South 17.3 mph 28.8 mph N/A   Unknown
1:52 PM 75.0 °F 55.9 °F 51% 29.72 in - South 21.9 mph 29.9 mph N/A   Unknown
2:52 PM 73.9 °F 54.0 °F 50% 29.71 in - South 15.0 mph 25.3 mph N/A   Unknown
3:52 PM 73.9 °F 51.1 °F 45% 29.70 in - South 9.2 mph 21.9 mph N/A   Unknown
4:52 PM 73.0 °F 48.9 °F 42% 29.71 in - South 15.0 mph 21.9 mph N/A   Unknown
5:52 PM 71.1 °F 48.0 °F 44% 29.72 in - South 9.2 mph - N/A   Unknown
6:52 PM 71.1 °F 48.9 °F 45% 29.71 in - South 18.4 mph 24.2 mph N/A   Unknown
7:52 PM 71.1 °F 46.9 °F 42% 29.71 in - South 15.0 mph 23.0 mph N/A   Unknown
8:52 PM 70.0 °F 48.0 °F 46% 29.70 in - South 17.3 mph 26.5 mph N/A   Unknown
9:52 PM 68.0 °F 46.9 °F 47% 29.71 in - South 13.8 mph 23.0 mph N/A   Unknown
10:52 PM 68.0 °F 50.0 °F 52% 29.70 in - South 15.0 mph 31.1 mph N/A   Unknown
11:52 PM 66.9 °F 52.0 °F 59% 29.71 in - South 18.4 mph 33.4 mph N/A   Unknown